This is the latest recevied weather packets stored in our database for station/object JF7ELG-13. If no packets are shown the sender has not sent any weather packets the latest 10 day(s).
| Time | Temp. | Humidity | Pressure | Rain* | Wind** | Luminosity | Snow |
|---|---|---|---|---|---|---|---|
| 1777876415 | 20.56° C | 56% | 993.6 hPa | 0 mm | - | - | - |
| 1777875511 | 21.67° C | 55% | 993.9 hPa | 0 mm | - | - | - |
| 1777874606 | 21.67° C | 55% | 993.6 hPa | 0 mm | - | - | - |
| 1777873707 | 22.78° C | 53% | 993.4 hPa | 0 mm | - | - | - |
| 1777872822 | 23.33° C | 52% | 993.4 hPa | 0 mm | - | - | - |
| 1777871924 | 22.22° C | 55% | 993.5 hPa | 0 mm | - | - | - |
| 1777870997 | 22.78° C | 53% | 993.8 hPa | 0 mm | - | - | - |
| 1777870102 | 23.33° C | 56% | 994.1 hPa | 0 mm | - | - | - |
| 1777869218 | 22.78° C | 56% | 994.1 hPa | 0 mm | - | - | - |
| 1777868321 | 22.78° C | 56% | 993.9 hPa | 0 mm | - | - | - |
| 1777867411 | 22.78° C | 59% | 994 hPa | 0 mm | - | - | - |
| 1777866534 | 23.33° C | 55% | 993.7 hPa | 0 mm | - | - | - |
| 1777865630 | 23.33° C | 58% | 993.6 hPa | 0 mm | - | - | - |
| 1777864732 | 23.89° C | 54% | 993.4 hPa | 0 mm | - | - | - |
| 1777863828 | 23.89° C | 56% | 993.4 hPa | 0 mm | - | - | - |
| 1777862928 | 23.89° C | 55% | 993.5 hPa | 0 mm | - | - | - |
| 1777862003 | 24.44° C | 59% | 993.6 hPa | 0 mm | - | - | - |
| 1777861127 | 24.44° C | 61% | 993.6 hPa | 0 mm | - | - | - |
| 1777860197 | 23.89° C | 62% | 993.5 hPa | 0 mm | - | - | - |
| 1777859336 | 23.89° C | 61% | 993.7 hPa | 0 mm | - | - | - |
| 1777858405 | 22.78° C | 62% | 993.6 hPa | 0 mm | - | - | - |
| 1777857525 | 22.78° C | 62% | 993.8 hPa | 0 mm | - | - | - |
| 1777856596 | 22.22° C | 64% | 993.8 hPa | 0 mm | - | - | - |
| 1777855696 | 22.22° C | 65% | 993.9 hPa | 0 mm | - | - | - |
| 1777854816 | 22.22° C | 69% | 993.8 hPa | 0 mm | - | - | - |
* Rain latest hour (hover to see other rain measurements)
** Current wind speed in m/s (hover to see current wind gust speed)